QPF
0.04 0.04 0.04 0.05 0.05 0.06 0.07 0.08 0.06 0.05 0.05 0.05 0.07 0.08 0.07 0.05 0.05 0.04 0.04 0.03 0.04 0.03 0.03 0.03 0.04 0.04 0.05 0.07 0.07 0.07 0.09 0.11 0.11 0.12 0.15 0.15 0.17 0.20
0.03 0.03 0.03 0.04 0.05 0.06 0.07 0.06 0.06 0.05 0.06 0.05 0.06 0.07 0.06 0.05 0.05 0.05 0.05 0.05 0.04 0.03 0.02 0.02 0.03 0.04 0.05 0.06 0.08 0.09 0.10 0.13 0.13 0.12 0.12 0.11 0.11 0.11
0.02 0.02 0.02 0.04 0.05 0.06 0.06 0.07 0.07 0.07 0.07 0.07 0.06 0.06 0.06 0.06 0.05 0.07 0.07 0.05 0.04 0.04 0.03 0.03 0.03 0.04 0.06 0.07 0.08 0.10 0.12 0.13 0.11 0.10 0.09 0.07 0.06 0.06
0.02 0.02 0.03 0.04 0.05 0.06 0.06 0.07 0.07 0.07 0.07 0.07 0.06 0.06 0.07 0.06 0.06 0.07 0.06 0.04 0.04 0.05 0.05 0.06 0.05 0.05 0.06 0.08 0.08 0.11 0.13 0.14 0.12 0.09 0.06 0.05 0.04 0.04
0.03 0.03 0.03 0.04 0.05 0.06 0.07 0.07 0.07 0.07 0.07 0.07 0.07 0.07 0.06 0.05 0.06 0.07 0.07 0.06 0.05 0.06 0.07 0.07 0.07 0.07 0.07 0.07 0.09 0.11 0.12 0.14 0.11 0.08 0.06 0.05 0.04 0.03
0.03 0.04 0.05 0.06 0.07 0.07 0.07 0.06 0.06 0.07 0.07 0.06 0.05 0.05 0.05 0.04 0.06 0.10 0.10 0.07 0.07 0.06 0.06 0.07 0.08 0.09 0.07 0.06 0.08 0.11 0.11 0.11 0.09 0.07 0.06 0.06 0.05 0.03
0.03 0.04 0.06 0.06 0.07 0.07 0.06 0.05 0.05 0.05 0.05 0.05 0.04 0.04 0.04 0.04 0.06 0.09 0.07 0.06 0.07 0.07 0.06 0.05 0.06 0.06 0.06 0.06 0.07 0.10 0.11 0.11 0.09 0.08 0.07 0.07 0.05 0.04
0.04 0.04 0.05 0.06 0.07 0.06 0.06 0.06 0.06 0.05 0.04 0.04 0.04 0.04 0.04 0.05 0.06 0.06 0.05 0.05 0.06 0.06 0.05 0.05 0.05 0.05 0.05 0.05 0.07 0.11 0.12 0.10 0.10 0.08 0.07 0.06 0.04 0.04
0.04 0.04 0.04 0.06 0.06 0.04 0.04 0.05 0.04 0.04 0.03 0.04 0.05 0.04 0.04 0.05 0.06 0.06 0.04 0.04 0.04 0.03 0.04 0.05 0.05 0.06 0.05 0.05 0.07 0.10 0.11 0.09 0.08 0.08 0.06 0.04 0.04 0.04
0.03 0.04 0.04 0.04 0.03 0.03 0.02 0.02 0.03 0.03 0.03 0.03 0.03 0.03 0.04 0.05 0.06 0.05 0.06 0.06 0.04 0.02 0.03 0.05 0.05 0.05 0.05 0.06 0.09 0.12 0.11 0.10 0.08 0.08 0.06 0.04 0.04 0.06
0.03 0.03 0.03 0.03 0.03 0.03 0.02 0.02 0.02 0.03 0.03 0.03 0.04 0.04 0.03 0.04 0.05 0.04 0.05 0.05 0.04 0.04 0.05 0.05 0.04 0.03 0.04 0.07 0.11 0.12 0.10 0.11 0.10 0.08 0.06 0.05 0.05 0.06
0.02 0.02 0.02 0.02 0.03 0.03 0.03 0.02 0.02 0.02 0.02 0.02 0.02 0.02 0.02 0.03 0.04 0.03 0.04 0.04 0.03 0.04 0.04 0.05 0.04 0.03 0.04 0.07 0.09 0.10 0.11 0.11 0.11 0.09 0.07 0.07 0.06 0.05
0.01 0.01 0.02 0.02 0.03 0.03 0.02 0.02 0.03 0.02 0.02 0.02 0.01 0.01 0.01 0.02 0.03 0.03 0.03 0.03 0.03 0.03 0.03 0.03 0.04 0.04 0.05 0.06 0.08 0.08 0.08 0.10 0.10 0.09 0.08 0.08 0.07 0.07
0.02 0.02 0.02 0.02 0.01 0.01 0.02 0.02 0.02 0.02 0.01 0.01 0.01 0.01 0.01 0.02 0.02 0.02 0.03 0.03 0.03 0.03 0.02 0.02 0.03 0.04 0.04 0.05 0.07 0.08 0.07 0.10 0.11 0.08 0.07 0.08 0.08 0.07
0.02 0.02 0.02 0.01 0.01 0.01 0.01 0.01 0.01 0.01 0.01 0.01 0.01 0.01 0.01 0.02 0.02 0.02 0.02 0.02 0.02 0.02 0.02 0.02 0.03 0.04 0.04 0.05 0.06 0.07 0.07 0.09 0.11 0.09 0.07 0.05 0.05 0.05
0.02 0.02 0.02 0.01 0.01 0.01 0.01 0.01 0.01 0.01 0.01 0.01 0.01 0.01 0.01 0.02 0.02 0.03 0.03 0.02 0.02 0.02 0.02 0.02 0.03 0.03 0.04 0.05 0.06 0.06 0.06 0.07 0.08 0.08 0.05 0.03 0.02 0.03
0.01 0.01 0.01 0.01 0.01 0.00 0.00 0.01 0.01 0.01 0.01 0.01 0.01 0.01 0.01 0.01 0.02 0.02 0.03 0.03 0.03 0.03 0.03 0.03 0.03 0.03 0.04 0.04 0.05 0.05 0.05 0.05 0.05 0.05 0.04 0.03 0.02 0.02
0.01 0.01 0.01 0.01 0.01 0.01 0.01 0.00 0.01 0.01 0.01 0.01 0.01 0.01 0.01 0.01 0.02 0.02 0.02 0.03 0.03 0.03 0.03 0.04 0.03 0.02 0.02 0.03 0.04 0.04 0.05 0.04 0.04 0.04 0.03 0.04 0.03 0.03
0.01 0.01 0.01 0.01 0.01 0.01 0.01 0.01 0.01 0.01 0.01 0.01 0.01 0.01 0.01 0.01 0.01 0.02 0.02 0.02 0.02 0.02 0.03 0.03 0.03 0.02 0.03 0.03 0.03 0.03 0.03 0.03 0.03 0.04 0.03 0.03 0.04 0.03
0.01 0.01 0.02 0.01 0.01 0.01 0.01 0.01 0.01 0.01 0.01 0.01 0.02 0.02 0.02 0.02 0.02 0.02 0.02 0.02 0.02 0.02 0.02 0.02 0.02 0.02 0.03 0.04 0.04 0.03 0.02 0.03 0.04 0.04 0.04 0.03 0.04 0.04
0.02 0.02 0.02 0.02 0.02 0.01 0.01 0.01 0.01 0.01 0.01 0.01 0.02 0.02 0.02 0.02 0.02 0.01 0.01 0.01 0.02 0.02 0.02 0.02 0.02 0.02 0.02 0.03 0.03 0.03 0.02 0.03 0.04 0.05 0.04 0.04 0.05 0.05
0.02 0.02 0.02 0.02 0.02 0.02 0.02 0.01 0.01 0.01 0.01 0.01 0.01 0.02 0.02 0.02 0.02 0.01 0.01 0.01 0.01 0.01 0.01 0.01 0.01 0.02 0.02 0.03 0.03 0.03 0.02 0.02 0.04 0.04 0.04 0.04 0.05 0.05
0.02 0.02 0.02 0.02 0.02 0.02 0.02 0.01 0.01 0.01 0.01 0.01 0.01 0.01 0.02 0.02 0.01 0.01 0.01 0.01 0.01 0.01 0.01 0.02 0.02 0.02 0.03 0.03 0.03 0.03 0.03 0.03 0.04 0.04 0.03 0.03 0.03 0.03
MSLP
1018.55 1018.32 1017.98 1017.51 1016.88 1016.07 1015.10 1013.97 1012.71 1011.35 1009.92 1008.43 1006.91 1005.35 1003.76 1002.13 1000.46 998.76 997.04 995.32 993.63 992.02 990.51 989.15 987.97 987.01 986.27 985.76 985.49 985.44 985.58 985.89 986.33 986.85 987.42 988.00 988.55 989.04
1017.98 1017.73 1017.41 1016.98 1016.40 1015.65 1014.73 1013.64 1012.41 1011.04 1009.57 1008.01 1006.38 1004.68 1002.92 1001.10 999.25 997.36 995.46 993.59 991.78 990.08 988.54 987.18 986.06 985.18 984.55 984.19 984.07 984.16 984.44 984.85 985.37 985.93 986.52 987.08 987.59 988.04
1017.39 1017.13 1016.81 1016.40 1015.85 1015.15 1014.28 1013.23 1012.03 1010.67 1009.18 1007.58 1005.88 1004.08 1002.20 1000.26 998.26 996.24 994.22 992.25 990.37 988.63 987.08 985.75 984.68 983.88 983.36 983.09 983.07 983.25 983.59 984.05 984.57 985.11 985.64 986.13 986.56 986.92
1016.83 1016.55 1016.22 1015.81 1015.28 1014.61 1013.77 1012.76 1011.59 1010.25 1008.77 1007.16 1005.43 1003.60 1001.67 999.66 997.61 995.53 993.47 991.47 989.58 987.84 986.31 985.03 984.00 983.26 982.78 982.56 982.57 982.75 983.07 983.47 983.91 984.36 984.79 985.16 985.47 985.72
1016.33 1016.02 1015.67 1015.25 1014.72 1014.05 1013.22 1012.24 1011.09 1009.79 1008.34 1006.76 1005.06 1003.24 1001.34 999.36 997.34 995.30 993.28 991.32 989.49 987.81 986.33 985.09 984.10 983.37 982.89 982.64 982.58 982.67 982.88 983.15 983.45 983.74 984.01 984.23 984.42 984.58
1015.88 1015.55 1015.17 1014.71 1014.16 1013.47 1012.64 1011.67 1010.54 1009.28 1007.88 1006.37 1004.74 1003.02 1001.21 999.35 997.44 995.52 993.63 991.80 990.08 988.50 987.10 985.91 984.94 984.19 983.65 983.30 983.12 983.05 983.07 983.15 983.25 983.35 983.45 983.53 983.61 983.69
1015.47 1015.11 1014.69 1014.19 1013.59 1012.87 1012.03 1011.05 1009.95 1008.73 1007.40 1005.98 1004.47 1002.89 1001.25 999.56 997.85 996.12 994.42 992.78 991.22 989.78 988.49 987.36 986.40 985.61 984.99 984.51 984.15 983.89 983.70 983.55 983.44 983.36 983.29 983.25 983.26 983.31
1015.07 1014.68 1014.22 1013.67 1013.02 1012.26 1011.38 1010.40 1009.32 1008.15 1006.90 1005.60 1004.24 1002.84 1001.40 999.94 998.45 996.97 995.51 994.08 992.72 991.45 990.28 989.22 988.29 987.47 986.76 986.16 985.64 985.18 984.79 984.45 984.16 983.91 983.73 983.61 983.58 983.65
1014.68 1014.25 1013.74 1013.14 1012.44 1011.63 1010.72 1009.73 1008.67 1007.56 1006.41 1005.24 1004.04 1002.84 1001.62 1000.39 999.16 997.93 996.71 995.52 994.37 993.28 992.25 991.29 990.40 989.58 988.83 988.14 987.50 986.91 986.37 985.89 985.47 985.13 984.88 984.74 984.73 984.84
1014.28 1013.82 1013.27 1012.61 1011.86 1011.01 1010.08 1009.09 1008.07 1007.02 1005.97 1004.93 1003.90 1002.88 1001.87 1000.87 999.87 998.88 997.90 996.93 995.99 995.08 994.20 993.36 992.56 991.79 991.06 990.35 989.67 989.02 988.42 987.88 987.42 987.05 986.80 986.68 986.70 986.88
1013.89 1013.40 1012.80 1012.10 1011.31 1010.43 1009.50 1008.53 1007.54 1006.57 1005.62 1004.70 1003.82 1002.98 1002.15 1001.35 1000.55 999.76 998.98 998.21 997.45 996.72 996.00 995.30 994.62 993.96 993.31 992.66 992.03 991.42 990.85 990.34 989.90 989.57 989.35 989.28 989.36 989.60
1013.51 1012.99 1012.36 1011.63 1010.82 1009.93 1009.01 1008.07 1007.14 1006.25 1005.40 1004.61 1003.86 1003.16 1002.49 1001.83 1001.20 1000.56 999.94 999.32 998.72 998.14 997.58 997.04 996.51 996.00 995.49 994.98 994.48 993.98 993.52 993.09 992.74 992.47 992.32 992.31 992.43 992.69
1013.15 1012.60 1011.96 1011.22 1010.40 1009.53 1008.64 1007.75 1006.89 1006.09 1005.34 1004.66 1004.03 1003.45 1002.89 1002.35 1001.82 1001.30 1000.78 1000.28 999.81 999.36 998.95 998.56 998.21 997.87 997.54 997.22 996.89 996.56 996.24 995.94 995.70 995.52 995.43 995.45 995.58 995.83
1012.82 1012.25 1011.60 1010.86 1010.06 1009.22 1008.38 1007.56 1006.79 1006.08 1005.44 1004.86 1004.33 1003.84 1003.38 1002.92 1002.46 1002.01 1001.57 1001.15 1000.76 1000.43 1000.14 999.91 999.72 999.56 999.43 999.30 999.16 999.00 998.84 998.68 998.53 998.43 998.38 998.40 998.50 998.70
1012.50 1011.93 1011.28 1010.56 1009.79 1009.01 1008.23 1007.49 1006.81 1006.20 1005.66 1005.17 1004.74 1004.33 1003.93 1003.53 1003.13 1002.73 1002.33 1001.97 1001.65 1001.40 1001.22 1001.11 1001.07 1001.07 1001.11 1001.16 1001.19 1001.19 1001.17 1001.12 1001.05 1000.98 1000.93 1000.92 1000.96 1001.06
1012.19 1011.63 1011.00 1010.31 1009.59 1008.86 1008.16 1007.51 1006.92 1006.40 1005.95 1005.56 1005.20 1004.87 1004.53 1004.18 1003.82 1003.45 1003.10 1002.77 1002.51 1002.32 1002.22 1002.21 1002.28 1002.41 1002.59 1002.77 1002.93 1003.05 1003.12 1003.13 1003.10 1003.04 1002.96 1002.89 1002.84 1002.83
1011.91 1011.35 1010.75 1010.10 1009.43 1008.77 1008.14 1007.57 1007.06 1006.63 1006.27 1005.95 1005.67 1005.40 1005.12 1004.82 1004.51 1004.18 1003.86 1003.58 1003.36 1003.22 1003.18 1003.24 1003.38 1003.60 1003.85 1004.11 1004.35 1004.54 1004.65 1004.69 1004.66 1004.57 1004.44 1004.29 1004.15 1004.04
1011.63 1011.10 1010.53 1009.93 1009.31 1008.71 1008.15 1007.65 1007.22 1006.86 1006.56 1006.32 1006.10 1005.89 1005.67 1005.43 1005.16 1004.88 1004.62 1004.38 1004.20 1004.10 1004.10 1004.20 1004.38 1004.63 1004.92 1005.22 1005.48 1005.68 1005.80 1005.83 1005.77 1005.64 1005.45 1005.23 1005.01 1004.80
1011.39 1010.88 1010.35 1009.79 1009.23 1008.69 1008.19 1007.75 1007.37 1007.07 1006.83 1006.64 1006.48 1006.32 1006.16 1005.97 1005.77 1005.55 1005.34 1005.15 1005.02 1004.96 1004.99 1005.11 1005.30 1005.56 1005.84 1006.13 1006.37 1006.56 1006.65 1006.65 1006.56 1006.39 1006.15 1005.88 1005.60 1005.32
1011.17 1010.70 1010.21 1009.70 1009.19 1008.70 1008.25 1007.86 1007.53 1007.27 1007.07 1006.92 1006.80 1006.69 1006.59 1006.46 1006.32 1006.17 1006.03 1005.90 1005.82 1005.80 1005.84 1005.97 1006.15 1006.39 1006.65 1006.90 1007.11 1007.25 1007.31 1007.29 1007.16 1006.96 1006.70 1006.40 1006.08 1005.77
1011.00 1010.57 1010.12 1009.66 1009.21 1008.77 1008.36 1008.00 1007.71 1007.47 1007.30 1007.18 1007.10 1007.03 1006.98 1006.91 1006.84 1006.76 1006.68 1006.62 1006.59 1006.60 1006.67 1006.79 1006.96 1007.16 1007.38 1007.58 1007.75 1007.86 1007.89 1007.83 1007.70 1007.49 1007.22 1006.92 1006.59 1006.26
1010.86 1010.48 1010.08 1009.67 1009.27 1008.88 1008.51 1008.19 1007.92 1007.71 1007.56 1007.46 1007.41 1007.38 1007.37 1007.36 1007.35 1007.33 1007.32 1007.31 1007.33 1007.38 1007.46 1007.58 1007.72 1007.89 1008.07 1008.23 1008.35 1008.43 1008.44 1008.38 1008.24 1008.05 1007.79 1007.50 1007.18 1006.85
1010.76 1010.42 1010.08 1009.73 1009.38 1009.03 1008.72 1008.43 1008.19 1008.01 1007.88 1007.80 1007.76 1007.76 1007.79 1007.82 1007.86 1007.91 1007.95 1008.00 1008.06 1008.13 1008.22 1008.34 1008.47 1008.60 1008.74 1008.87 1008.96 1009.01 1009.01 1008.95 1008.83 1008.66 1008.43 1008.16 1007.85 1007.52
Thickness
5540 5537 5533 5531 5527 5525 5523 5521 5519 5521 5526 5526 5527 5528 5528 5529 5530 5530 5531 5531 5532 5532 5534 5535 5533 5531 5530 5530 5530 5529 5529 5529 5530 5530 5530 5530 5529 5528
5533 5530 5527 5524 5521 5518 5516 5515 5514 5513 5514 5517 5516 5517 5518 5519 5520 5521 5521 5522 5523 5524 5525 5525 5523 5521 5520 5520 5519 5519 5518 5518 5518 5519 5518 5518 5518 5517
5527 5524 5520 5518 5515 5512 5510 5508 5507 5506 5506 5508 5508 5509 5509 5510 5511 5512 5513 5514 5515 5515 5516 5515 5513 5511 5510 5510 5510 5510 5508 5508 5507 5507 5507 5507 5506 5506
5521 5517 5514 5511 5508 5506 5503 5501 5501 5500 5500 5500 5500 5501 5501 5501 5503 5504 5504 5505 5505 5506 5506 5505 5503 5502 5501 5501 5500 5500 5499 5498 5497 5497 5496 5496 5496 5496
5515 5511 5508 5504 5502 5499 5497 5495 5495 5494 5493 5493 5493 5494 5493 5493 5494 5495 5495 5495 5495 5494 5495 5494 5493 5492 5491 5491 5490 5489 5488 5488 5488 5488 5487 5487 5486 5486
5509 5505 5502 5499 5496 5494 5491 5489 5487 5486 5485 5484 5485 5485 5485 5485 5484 5483 5485 5485 5484 5484 5483 5482 5483 5482 5481 5481 5481 5480 5479 5478 5478 5479 5478 5478 5477 5478
5502 5499 5496 5494 5492 5489 5486 5483 5481 5478 5477 5476 5476 5477 5476 5475 5474 5473 5473 5475 5475 5473 5473 5474 5473 5473 5471 5470 5470 5470 5470 5470 5470 5470 5470 5470 5471 5471
5496 5493 5491 5488 5486 5484 5481 5479 5476 5474 5472 5471 5470 5469 5468 5466 5465 5464 5463 5464 5465 5463 5461 5463 5463 5462 5462 5461 5461 5462 5462 5462 5462 5463 5463 5464 5465 5465
5490 5488 5486 5482 5480 5477 5475 5473 5470 5469 5468 5467 5464 5462 5461 5460 5458 5457 5455 5453 5451 5451 5451 5453 5454 5453 5453 5452 5453 5454 5454 5454 5454 5455 5457 5458 5458 5458
5484 5481 5479 5475 5473 5471 5469 5466 5463 5462 5461 5460 5459 5457 5454 5453 5451 5449 5447 5446 5445 5443 5442 5442 5444 5443 5444 5444 5444 5445 5445 5446 5447 5448 5449 5450 5450 5451
5476 5474 5471 5469 5467 5465 5463 5460 5458 5456 5455 5454 5452 5450 5449 5447 5444 5442 5440 5438 5437 5437 5434 5432 5433 5434 5436 5436 5436 5436 5437 5437 5439 5440 5441 5442 5442 5444
5468 5466 5464 5463 5461 5459 5456 5454 5452 5449 5448 5447 5445 5443 5441 5439 5437 5434 5432 5430 5428 5428 5426 5424 5424 5424 5427 5428 5427 5427 5428 5429 5430 5431 5432 5434 5435 5436
5461 5458 5456 5456 5455 5453 5451 5448 5447 5445 5443 5441 5439 5437 5434 5432 5430 5428 5425 5423 5421 5420 5419 5418 5417 5416 5415 5417 5419 5419 5419 5419 5421 5422 5424 5426 5428 5429
5454 5451 5450 5449 5448 5447 5444 5443 5442 5440 5437 5434 5431 5429 5426 5424 5422 5421 5418 5416 5414 5413 5412 5411 5410 5409 5408 5408 5409 5411 5411 5411 5412 5414 5416 5418 5420 5422
5447 5445 5444 5442 5441 5439 5437 5436 5435 5432 5430 5427 5424 5421 5418 5416 5415 5414 5412 5410 5409 5408 5407 5406 5404 5403 5401 5400 5400 5401 5403 5404 5405 5407 5409 5411 5413 5415
5440 5438 5437 5435 5433 5432 5430 5429 5427 5425 5422 5419 5416 5413 5411 5409 5407 5406 5405 5404 5403 5402 5401 5400 5399 5398 5396 5395 5394 5394 5395 5396 5399 5401 5403 5406 5408 5409
5433 5430 5428 5427 5425 5424 5422 5421 5419 5417 5414 5411 5409 5406 5403 5402 5400 5399 5397 5396 5395 5395 5394 5394 5393 5393 5392 5391 5390 5390 5390 5391 5392 5394 5398 5401 5403 5404
5427 5423 5420 5419 5418 5417 5416 5414 5412 5409 5407 5405 5402 5398 5396 5394 5393 5392 5390 5389 5388 5388 5387 5387 5388 5388 5388 5388 5386 5385 5385 5386 5388 5390 5392 5394 5398 5401
5419 5416 5413 5412 5411 5410 5409 5407 5405 5403 5400 5397 5395 5392 5389 5388 5387 5386 5384 5383 5382 5382 5381 5381 5381 5380 5380 5380 5380 5380 5380 5382 5384 5386 5388 5389 5392 5397
5410 5408 5407 5406 5405 5403 5402 5400 5398 5396 5393 5391 5388 5385 5383 5382 5381 5379 5378 5377 5377 5377 5376 5375 5374 5373 5372 5372 5373 5375 5377 5377 5379 5381 5383 5386 5389 5394
5403 5402 5400 5399 5398 5397 5395 5393 5391 5389 5386 5384 5381 5379 5378 5377 5375 5374 5373 5374 5372 5371 5371 5370 5369 5370 5369 5369 5370 5372 5374 5375 5376 5377 5379 5382 5386 5390
5396 5395 5394 5393 5391 5390 5388 5386 5384 5382 5380 5377 5375 5374 5372 5371 5370 5369 5369 5368 5367 5366 5366 5365 5366 5367 5366 5366 5366 5367 5370 5372 5374 5376 5378 5380 5380 5384
5389 5388 5387 5386 5385 5383 5382 5380 5377 5375 5373 5371 5370 5368 5367 5366 5365 5365 5364 5363 5362 5362 5362 5361 5362 5362 5362 5361 5361 5363 5365 5367 5370 5373 5376 5379 5382 5384